RH
8 8 8 7 6 4 5 4 4 3 4 4 5 4 4 5 4 3 2 2 2 2 2 2 3 7 26 43 42 66 95 87 96 67 47 54 28 15 32 17 20 25 20 16 15
11 11 10 8 7 6 5 5 4 4 4 4 4 4 5 4 5 5 3 3 2 2 2 2 3 4 12 31 48 72 83 95 97 66 36 44 96 15 21 21 19 24 26 18 17
11 12 11 13 12 10 8 6 5 5 4 3 4 3 4 5 4 5 4 4 3 3 3 2 2 4 8 25 38 68 73 90 94 96 44 28 36 16 16 21 22 18 25 21 18
13 13 12 12 14 14 13 10 6 5 4 4 4 4 4 4 5 5 5 5 4 3 3 3 3 3 7 33 44 97 72 93 96 95 79 47 16 21 81 44 22 18 19 20 19
15 14 15 14 14 14 13 12 9 7 6 5 4 4 4 4 5 5 6 6 5 4 3 3 3 4 7 31 34 60 84 98 96 93 80 39 15 19 29 40 29 21 20 19 21
16 14 15 14 14 14 16 14 12 9 6 6 5 4 4 4 7 7 6 6 7 5 3 3 3 4 4 23 31 60 55 86 89 97 98 94 34 23 25 34 22 21 20 18 18
15 17 16 15 16 15 12 17 14 10 7 6 4 3 3 4 6 12 8 8 8 8 5 3 3 3 7 10 26 51 98 83 87 91 97 83 80 48 68 35 26 22 20 20 26
16 16 13 11 11 16 16 17 14 10 7 6 4 3 4 3 4 8 10 13 12 12 8 4 3 3 6 8 23 40 67 92 98 84 94 92 81 25 24 37 23 16 18 21 30
3 4 5 7 11 16 17 14 10 8 6 5 4 4 4 5 6 7 12 15 19 14 14 6 4 4 6 14 21 41 88 75 97 96 96 92 83 45 46 90 57 24 17 16 22
3 5 10 15 18 16 15 10 8 6 5 5 4 5 5 7 8 12 19 30 27 20 16 12 5 4 5 14 38 68 83 74 98 97 97 92 97 99 84 48 24 26 13 15 19
6 10 17 21 20 16 11 8 7 6 6 5 5 4 6 8 10 12 18 29 30 25 21 16 8 5 16 39 62 60 79 85 98 98 97 96 97 95 91 95 55 19 10 14 16
13 19 24 23 19 14 10 8 5 6 5 7 6 7 8 8 10 12 17 26 30 29 29 20 11 8 28 62 64 57 67 87 93 97 97 96 97 94 94 97 83 68 18 10 13
18 28 25 21 17 12 9 7 5 5 8 10 11 15 14 9 9 11 12 21 21 38 35 25 12 12 30 69 58 71 94 96 96 91 87 96 97 92 98 100 93 98 90 74 17
13 32 25 20 15 11 8 6 5 9 10 15 11 12 9 7 11 9 8 11 17 44 36 26 14 13 34 66 83 86 93 96 96 82 81 86 96 97 99 100 95 95 97 90 37
13 25 27 19 14 10 8 8 13 11 18 25 20 18 8 7 7 5 4 6 30 42 37 21 15 51 55 82 97 91 89 95 95 91 78 62 89 96 97 84 78 97 93 91 80
32 25 21 17 13 10 9 13 14 26 37 41 38 19 45 26 8 31 12 16 38 38 36 23 18 22 67 80 86 84 88 92 100 87 77 66 78 91 88 97 99 98 81 83 96
30 24 20 15 11 9 12 13 20 34 45 47 50 38 64 73 48 33 41 31 32 40 35 24 14 68 78 78 83 77 78 84 97 93 84 87 81 96 96 87 98 98 96 95 96
39 27 18 14 10 9 17 13 30 47 40 24 43 61 99 55 91 88 63 40 30 37 43 33 24 79 81 80 81 72 92 89 93 92 97 97 88 95 97 97 96 88 90 90 75
46 30 18 13 11 13 17 15 52 58 16 15 55 7 57 79 72 88 96 91 47 32 62 51 34 81 86 82 71 66 75 92 80 80 79 98 87 81 96 92 68 58 70 73 89
44 40 19 14 13 18 16 12 27 38 39 5 4 4 21 89 81 84 88 75 100 45 38 62 49 60 71 68 66 51 51 54 64 62 52 83 95 90 94 83 65 70 74 72 95
38 46 22 14 14 18 15 14 38 63 55 6 7 8 11 16 69 73 94 90 88 100 69 91 48 71 65 50 35 46 33 33 53 47 41 76 86 95 94 71 74 78 71 80 97
36 48 33 15 15 16 14 20 75 75 41 32 9 8 8 12 6 11 86 99 97 89 69 99 65 98 90 98 44 66 58 99 75 88 90 88 70 95 91 75 82 89 80 83 96
24 50 40 19 20 20 13 21 72 81 79 53 18 12 12 12 11 8 29 79 94 98 96 64 68 97 93 97 93 87 84 96 89 93 91 83 71 58 70 66 69 78 84 87 95
16 36 48 22 22 21 23 42 61 67 86 14 16 12 12 6 6 8 40 29 52 88 99 79 64 92 97 92 75 78 75 88 92 81 84 89 68 56 53 57 62 83 77 97 96
22 30 42 23 31 26 36 73 62 87 66 18 13 9 9 8 17 17 24 73 51 66 86 99 92 90 85 86 73 72 68 62 71 38 34 56 44 20 49 35 43 44 47 83 96
29 25 40 30 27 40 34 20 16 57 50 26 20 11 7 11 16 11 26 62 74 82 95 90 97 84 100 91 89 87 70 61 68 38 13 13 17 4 20 12 12 16 61 83 75
34 25 43 41 43 69 44 64 38 16 46 31 14 12 8 12 12 20 18 56 77 87 76 58 70 94 72 96 99 94 94 60 56 34 22 10 17 8 15 28 29 44 33 80 96
Wind_Speed
13 13 13 11 10 9 10 7 6 4 3 4 6 9 12 12 13 13 11 12 9 12 13 12 10 13 13 12 6 7 12 9 11 11 11 8 9 9 6 7 8 6 8 8 13
10 10 11 10 9 8 8 7 7 7 6 5 4 6 9 13 16 17 16 15 12 12 14 16 12 13 14 11 10 10 11 10 13 17 15 13 17 8 9 5 7 7 6 8 10
8 7 8 9 9 9 9 7 6 5 4 4 5 6 7 10 14 17 19 18 16 15 16 17 14 10 13 15 14 11 14 26 24 17 14 11 14 9 7 11 8 8 5 7 9
6 7 9 11 11 12 12 11 7 5 4 5 5 7 9 11 12 15 20 21 20 19 18 19 19 15 14 17 15 9 11 16 10 15 13 14 14 12 9 10 9 7 4 6 10
12 13 13 14 14 15 15 14 12 11 9 8 10 11 10 13 15 18 21 24 24 24 23 22 22 20 16 19 20 15 7 13 13 22 21 16 15 15 11 10 9 7 6 5 8
15 16 16 16 17 17 17 18 17 15 13 11 12 13 16 21 18 21 24 27 27 28 27 24 25 26 21 23 21 20 12 10 24 31 32 18 12 11 12 14 10 11 9 7 10
17 17 18 19 19 19 20 21 21 17 17 16 15 17 18 23 24 24 30 30 31 31 30 29 31 28 25 22 24 22 5 11 13 25 37 21 14 13 12 15 11 13 10 9 11
21 22 22 22 22 20 19 19 19 20 19 19 19 18 22 22 25 29 35 32 33 33 34 33 33 32 27 24 23 21 16 12 11 14 26 17 18 12 13 16 14 10 9 8 9
19 20 21 20 19 18 18 19 19 19 19 19 19 20 20 20 22 24 25 34 34 35 35 37 37 35 32 26 25 24 13 16 9 11 20 21 23 12 12 15 14 10 11 7 8
19 19 18 18 18 17 18 19 19 19 19 20 19 19 21 19 21 22 22 28 31 37 40 39 36 35 32 27 23 23 26 22 16 31 18 18 16 15 11 18 17 17 16 12 10
18 17 16 18 19 19 19 19 19 20 19 18 19 21 20 17 21 23 24 27 31 37 36 38 36 32 27 24 32 32 30 24 16 16 30 20 19 17 15 16 17 17 17 13 14
19 17 18 19 21 21 20 19 19 17 17 18 20 22 20 18 22 23 27 29 31 34 34 35 32 27 28 32 35 32 28 29 31 25 28 28 28 19 17 19 17 16 16 14 18
19 19 20 21 22 20 21 21 19 17 13 16 17 17 18 18 17 20 24 28 29 31 31 31 26 28 30 32 30 28 23 29 34 31 33 18 41 22 19 15 21 17 20 16 18
19 20 22 22 20 19 20 20 20 16 15 12 11 13 13 11 11 14 22 27 28 28 30 27 26 26 30 29 26 29 26 23 21 34 31 37 28 41 32 29 27 20 19 18 13
20 21 23 23 18 17 19 17 15 15 12 13 13 15 13 6 3 7 16 20 24 27 31 28 27 24 28 25 24 26 27 22 16 19 24 30 39 39 49 29 22 18 20 25 22
20 22 22 19 17 18 16 13 13 11 10 13 15 10 10 10 5 5 13 16 21 24 27 27 28 27 28 22 19 22 23 33 13 15 17 19 37 24 31 31 26 28 24 25 22
22 22 20 17 17 16 14 11 11 10 7 7 10 10 7 9 8 4 4 7 15 18 20 27 29 30 28 25 21 23 23 26 2 2 5 14 14 7 25 30 39 31 23 15 25
24 22 19 17 17 13 9 11 10 11 13 6 8 10 5 5 6 6 8 5 9 14 16 22 29 27 25 22 21 21 10 15 13 2 3 6 21 14 16 34 28 30 34 22 23
23 23 19 17 14 10 9 11 11 10 5 5 10 11 12 12 8 4 0 5 7 10 15 18 28 35 21 16 23 19 15 15 15 5 2 3 18 23 16 24 15 15 22 23 32
21 22 20 17 13 8 11 14 14 11 8 4 6 14 8 6 15 13 13 14 11 21 22 22 32 33 34 19 16 22 19 22 22 19 16 11 1 1 9 14 13 13 14 20 33
23 21 21 16 13 11 16 15 12 13 5 4 7 13 21 17 14 15 15 17 19 16 25 26 28 26 25 27 21 21 22 18 17 13 18 17 20 14 2 8 0 16 10 24 38
23 22 20 16 15 12 16 13 12 15 8 8 7 13 21 26 25 19 24 19 20 23 28 33 28 30 24 20 21 19 21 18 17 12 16 16 16 6 2 3 9 11 16 18 32
23 24 19 16 16 10 17 18 17 14 13 12 12 17 20 24 24 25 23 27 29 27 29 34 29 26 28 21 21 23 30 27 25 21 16 18 18 17 11 4 4 9 12 17 17
22 23 19 15 13 12 14 17 17 15 14 9 13 13 21 23 20 16 12 17 36 30 36 30 30 31 30 31 29 26 31 37 30 25 23 20 20 21 24 12 8 10 13 16 15
21 18 15 12 13 18 16 18 18 13 19 18 15 11 16 15 13 12 13 11 22 33 30 32 32 37 34 34 27 27 31 33 37 34 32 25 26 26 25 28 22 14 16 15 18
21 18 15 14 15 14 19 17 15 20 20 19 17 15 16 13 12 8 6 3 4 19 17 24 36 39 32 37 33 31 33 37 39 37 35 32 29 27 30 25 26 26 11 15 19
22 21 18 20 16 15 24 20 19 16 11 15 13 18 13 11 8 9 4 7 3 10 18 18 23 38 42 35 19 20 35 32 32 28 33 33 31 29 30 23 21 17 14 15 18
Wind_Direction
48 43 38 31 31 27 23 25 14 1 335 290 263 257 249 237 240 240 240 247 239 248 254 265 253 234 209 212 225 248 272 265 277 226 179 184 186 154 149 143 113 106 84 81 86
34 33 29 24 20 15 3 357 353 342 339 312 287 268 253 247 238 240 241 248 242 241 249 257 254 252 222 204 208 234 262 288 244 204 193 171 178 181 170 158 124 115 108 96 94
0 5 7 6 12 12 4 350 335 309 291 293 302 274 261 251 250 243 242 244 242 244 248 255 256 252 239 206 208 236 249 311 194 198 210 178 191 196 186 170 160 137 125 98 95
318 322 334 340 345 346 347 348 337 309 275 261 275 274 265 251 246 248 243 245 240 240 238 249 251 237 223 221 214 233 261 294 163 200 198 204 193 194 191 180 161 146 140 115 85
311 312 318 327 328 325 325 333 335 326 313 297 280 255 253 252 240 240 237 239 239 237 233 236 248 244 216 214 224 221 206 280 262 209 198 198 202 184 180 202 180 164 177 131 115
300 306 307 309 316 319 318 321 325 324 311 295 283 268 252 248 251 245 245 240 238 236 235 230 238 242 232 212 221 225 230 240 267 219 197 203 202 188 176 200 196 181 182 166 120
304 305 307 309 311 313 316 312 312 314 308 298 283 269 260 253 251 243 246 241 238 233 234 230 231 237 234 214 216 223 167 256 176 187 186 194 202 176 186 200 197 195 184 154 126
305 306 307 307 307 312 313 309 305 306 303 296 291 280 268 266 260 251 250 245 240 234 229 230 230 233 236 220 215 219 219 239 235 199 205 197 201 186 196 201 201 210 199 159 159
309 307 306 306 308 311 312 309 302 300 299 295 292 290 283 281 272 264 253 249 244 240 232 228 225 226 228 216 205 220 219 220 222 228 197 200 185 186 184 182 206 220 227 195 164
313 313 313 310 308 306 304 300 298 298 296 300 296 294 292 280 270 259 244 246 236 235 233 231 228 226 226 221 211 213 227 227 242 217 205 225 188 192 210 220 219 222 232 196 182
311 309 308 304 304 300 298 299 300 300 298 298 294 294 290 277 263 257 246 237 232 232 232 229 229 228 224 216 215 212 215 226 226 237 201 207 196 215 219 225 232 226 231 216 180
311 307 304 300 302 299 298 299 296 297 293 295 296 296 290 277 266 254 243 232 227 228 228 227 226 223 214 216 213 215 217 227 234 267 246 218 178 204 213 216 228 232 220 229 203
311 307 301 301 300 298 299 298 294 293 293 294 295 298 287 281 270 255 241 227 225 221 224 223 217 213 212 215 213 220 226 235 240 250 251 221 193 219 217 241 206 251 237 231 213
305 305 305 304 302 304 303 300 303 304 300 291 297 311 298 290 260 246 223 222 214 215 213 209 213 207 211 209 212 223 235 236 259 254 257 245 247 208 217 221 231 229 222 234 210
307 305 308 307 303 303 298 301 305 297 313 318 345 342 345 321 303 250 224 214 209 215 215 194 192 187 205 196 213 213 229 232 241 260 270 271 261 226 205 214 216 234 250 230 222
313 314 313 306 305 299 300 295 298 307 319 351 5 30 31 12 37 231 203 206 205 215 218 200 190 194 193 195 213 219 225 230 287 282 270 266 250 248 228 211 225 230 237 236 233
319 321 320 310 303 304 297 284 284 289 302 348 356 11 75 33 69 125 112 222 214 216 219 203 194 179 186 203 205 206 235 235 94 1 316 236 253 318 214 206 208 219 210 224 224
322 324 319 311 305 302 284 269 281 300 340 2 342 306 340 330 0 47 15 54 210 214 215 214 188 173 189 212 211 212 220 239 265 70 11 249 231 273 215 200 206 202 210 224 206
319 328 319 312 304 296 261 254 263 276 307 283 261 261 252 247 245 200 13 75 114 197 206 204 186 173 185 218 216 210 223 224 238 228 271 245 237 272 215 187 179 201 214 220 212
321 322 316 310 298 277 241 244 255 261 290 289 282 285 262 289 252 229 238 191 172 185 195 190 179 188 195 194 218 228 230 239 244 250 273 272 143 344 229 180 178 204 203 215 204
318 317 313 309 293 258 245 247 267 255 274 292 292 284 277 247 240 255 227 203 192 184 187 197 197 186 198 205 200 207 218 233 242 234 245 255 269 285 80 118 201 198 180 194 187
318 314 311 304 284 272 244 248 263 275 305 317 283 267 270 275 270 256 224 222 218 194 197 197 194 185 192 210 197 195 206 213 211 218 233 253 245 231 333 22 134 166 155 156 196
310 310 312 310 290 258 247 242 246 257 290 307 303 287 279 274 280 279 256 242 224 212 206 206 203 191 191 197 184 202 206 206 202 201 208 233 249 212 241 187 174 167 171 157 163
300 311 310 301 289 228 236 253 257 272 277 313 299 276 279 283 278 280 275 261 240 234 208 209 204 197 194 186 190 192 199 205 195 209 206 217 235 242 219 226 243 297 223 200 186
295 309 306 298 284 250 259 236 268 266 277 308 304 309 294 297 312 306 285 288 233 244 241 217 212 202 208 194 195 191 194 203 208 212 221 216 233 245 247 239 242 268 289 272 219
284 295 289 261 261 267 266 251 248 248 271 291 296 310 290 304 337 312 278 310 232 235 209 242 204 208 203 203 204 208 198 200 208 211 218 222 231 232 250 251 253 258 239 262 275
276 281 280 268 258 248 239 232 239 260 251 273 279 286 289 315 313 305 284 180 194 212 219 217 221 211 214 212 187 210 208 196 201 208 213 215 221 230 242 249 242 249 254 263 254